Ely, NV

8:10 AM PDT on April 29, 2017 (GMT -0700)
Ely

Weather History for KELY - May, 2012

Change the Weather History Date:

Sunday, May 20, 2012

  Actual Average Record
Temperature  
Mean Temperature 57 °F 52 °F  
Max Temperature 82 °F 69 °F 88 °F (2008)
Min Temperature 31 °F 34 °F 17 °F (1959)
Degree Days  
Heating Degree Days 8 13  
Month to date heating degree days 242 315  
Since 1 July heating degree days 6448 7218  
Cooling Degree Days 0 0  
Month to date cooling degree days 0 0  
Year to date cooling degree days 0 0  
Growing Degree Days 6 (Base 50)    
Moisture  
Dew Point 18 °F    
Average Humidity 29    
Maximum Humidity 47    
Minimum Humidity 10    
Precipitation  
Precipitation 0.00 in 0.04 in 1.10 in (1903)
Month to date precipitation T 0.70  
Year to date precipitation 3.76 4.03  
Snow  
Snow 0.00 in 0.10 in 3.00 in (1903)
Month to date snowfall 0.0 2.0  
Since 1 July snowfall 51.3 50.4  
Snow Depth 0.00 in    
Sea Level Pressure  
Sea Level Pressure 29.98 in    
Wind  
Wind Speed 8 mph (South)    
Max Wind Speed 16 mph    
Max Gust Speed 30 mph    
Visibility 10 miles    
Events      
T = Trace of Precipitation, MM = Missing Value Source: NWS Daily Summary

Daily Weather History Graph

Daily Weather History Graph

Search for Another Location

Airport or City:

Trip Planner

Search our weather history database for the weather conditions in past years. The results will help you decide how hot, cold, wet, or windy it might be!

Date:

Astronomy

May. 20, 2012 Rise Set
Actual Time 5:21 AM PDT 7:51 PM PDT
Civil Twilight 4:50 AM PDT 8:21 PM PDT
Nautical Twilight 4:12 AM PDT 9:00 PM PDT
Astronomical Twilight 3:30 AM PDT 9:42 PM PDT
Moon 5:04 AM PDT (5/20) 7:53 PM PDT (5/20)
Length of Visible Light 15h 31m
Length of Day
14h 29m
Waning Crescent, 0% of the Moon is Illuminated
May 20
Waning Crescent
May 20
New
May 28
First Quarter
Jun 4
Full
Jun 11
Last Quarter

Hourly Weather History & Observations

Time (PDT) Temp. Windchill Dew Point Humidity Pressure Visibility Wind Dir Wind Speed Gust Speed Precip Events Conditions
12:53 AM 37.0 °F 32.4 °F 15.1 °F 41% 30.01 in 10.0 mi SSE 5.8 mph - N/A   Clear
1:53 AM 36.0 °F 30.3 °F 12.0 °F 37% 30.01 in 10.0 mi SSE 6.9 mph - N/A   Clear
2:53 AM 35.1 °F 29.3 °F 10.9 °F 37% 30.01 in 10.0 mi South 6.9 mph - N/A   Clear
3:53 AM 34.0 °F 26.0 °F 10.9 °F 38% 30.02 in 10.0 mi SSE 10.4 mph - N/A   Clear
4:53 AM 30.9 °F 21.7 °F 12.9 °F 47% 30.04 in 10.0 mi South 11.5 mph - N/A   Clear
5:53 AM 33.1 °F 23.9 °F 12.0 °F 42% 30.04 in 10.0 mi South 12.7 mph - N/A   Clear
6:53 AM 43.0 °F 37.2 °F 12.9 °F 30% 30.01 in 10.0 mi South 10.4 mph - N/A   Clear
7:53 AM 55.0 °F - 14.0 °F 20% 30.00 in 10.0 mi South 6.9 mph - N/A   Clear
8:53 AM 62.1 °F - 14.0 °F 15% 30.04 in 10.0 mi Calm Calm - N/A   Clear
9:53 AM 69.1 °F - 14.0 °F 12% 30.01 in 10.0 mi Variable 4.6 mph - N/A   Clear
10:53 AM 72.0 °F - 19.9 °F 14% 29.99 in 10.0 mi Variable 3.5 mph - N/A   Clear
11:53 AM 75.0 °F - 21.9 °F 14% 29.98 in 10.0 mi WNW 8.1 mph - N/A   Clear
12:53 PM 77.0 °F - 21.9 °F 13% 29.98 in 10.0 mi NNE 5.8 mph - N/A   Clear
1:53 PM 78.1 °F - 19.9 °F 11% 29.97 in 10.0 mi Variable 3.5 mph - N/A   Scattered Clouds
2:53 PM 80.1 °F - 19.9 °F 11% 29.94 in 10.0 mi SW 9.2 mph - N/A   Clear
3:53 PM 81.0 °F - 19.9 °F 10% 29.92 in 10.0 mi Variable 3.5 mph - N/A   Clear
4:53 PM 80.1 °F - 19.0 °F 10% 29.93 in 10.0 mi SW 11.5 mph 19.6 mph N/A   Clear
5:53 PM 78.1 °F - 19.0 °F 11% 29.92 in 10.0 mi South 9.2 mph - N/A   Clear
6:53 PM 66.9 °F - 19.9 °F 17% 29.94 in 10.0 mi SW 6.9 mph - N/A   Clear
7:53 PM 63.0 °F - 21.0 °F 20% 29.92 in 10.0 mi SSE 9.2 mph - N/A   Clear
8:53 PM 55.9 °F - 21.0 °F 26% 29.93 in 10.0 mi South 8.1 mph - N/A   Clear
9:53 PM 57.0 °F - 21.0 °F 25% 29.92 in 10.0 mi South 10.4 mph - N/A   Clear
10:53 PM 51.1 °F - 23.0 °F 33% 29.94 in 10.0 mi South 12.7 mph - N/A   Clear
11:53 PM 46.9 °F - 21.9 °F 37% 29.96 in 10.0 mi South 6.9 mph - N/A   Clear